Tracking 22779 objects as of 12-Apr-2021
HD Live streaming from Space Station
objects crossing your sky now

WESTFORD NEEDLES

Track WESTFORD NEEDLES now!
10-day predictions
WESTFORD NEEDLES is classified as:


NORAD ID: 19051
Int'l Code: 1963-014EA
Perigee: 2,766.2 km
Apogee: 4,492.5 km
Inclination: 87.2 °
Period: 165.9 minutes
Semi major axis: 10000 km
RCS: 0.357 m2 (medium)
Launch date: May 9, 1963
Source: United States (US)
Launch site: AIR FORCE WESTERN TEST RANGE (AFWTR)
aabbcc
Your satellite tracking list
Your tracking list is empty




NASA's NSSDC Master Catalog

Two Line Element Set (TLE):
1 19051U 63014EA  21102.07037561  .00000604  00000-0  18759+0 0  9994
2 19051  87.1948 338.3713 0863134 144.6857 221.4419  8.68121009 70682
Source of the keplerian elements: AFSPC